Time,TemperatureF,DewpointF,PressureIn,WindDirection,WindDirectionDegrees,WindSpeedMPH,WindSpeedGustMPH,Humidity,HourlyPrecipIn,Conditions,Clouds,dailyrainin,SoftwareType,DateUTC
2013-09-10 00:00:00,57.5,56.4,29.75,WSW,241,0.0,3.0,96,0.00,,---,0.00,VWS V14.01,2013-09-10 07:00:00,
2013-09-10 00:05:00,57.5,56.4,29.75,WSW,241,0.0,3.0,96,0.00,,---,0.00,VWS V14.01,2013-09-10 07:05:00,
2013-09-10 00:10:00,57.5,56.4,29.75,WSW,241,0.0,0.0,96,0.00,,---,0.00,VWS V14.01,2013-09-10 07:10:00,
2013-09-10 00:15:00,57.3,56.2,29.75,WSW,241,0.0,0.0,96,0.00,,---,0.00,VWS V14.01,2013-09-10 07:15:00,
2013-09-10 00:20:00,57.3,56.2,29.75,WSW,241,1.0,1.0,96,0.00,,---,0.00,VWS V14.01,2013-09-10 07:20:00,
2013-09-10 00:25:00,57.3,56.2,29.75,WSW,241,0.0,3.0,96,0.00,,---,0.00,VWS V14.01,2013-09-10 07:25:00,
2013-09-10 00:30:00,57.2,56.1,29.75,WSW,241,0.0,3.0,96,0.00,,---,0.00,VWS V14.01,2013-09-10 07:30:00,
2013-09-10 00:35:00,57.2,56.4,29.75,WSW,241,0.0,3.0,97,0.00,,---,0.00,VWS V14.01,2013-09-10 07:35:00,
2013-09-10 00:40:00,57.3,56.5,29.75,WSW,241,1.0,2.0,97,0.00,,---,0.00,VWS V14.01,2013-09-10 07:40:00,
2013-09-10 00:45:00,57.5,56.7,29.75,WSW,241,0.0,2.0,97,0.00,,---,0.00,VWS V14.01,2013-09-10 07:45:00,
2013-09-10 00:50:00,57.5,56.7,29.75,WSW,241,0.0,2.0,97,0.00,,---,0.00,VWS V14.01,2013-09-10 07:50:00,
2013-09-10 00:55:00,57.5,56.7,29.75,WSW,241,0.0,3.0,97,0.00,,---,0.00,VWS V14.01,2013-09-10 07:55:00,
2013-09-10 01:00:00,57.5,56.7,29.75,WSW,241,2.0,3.0,97,0.00,,---,0.00,VWS V14.01,2013-09-10 08:00:00,
2013-09-10 01:05:00,57.5,56.7,29.75,WSW,241,0.0,3.0,97,0.00,,---,0.00,VWS V14.01,2013-09-10 08:05:00,
2013-09-10 01:10:00,57.3,56.5,29.75,WSW,241,0.0,4.0,97,0.00,,---,0.00,VWS V14.01,2013-09-10 08:10:00,
2013-09-10 01:16:00,57.2,56.4,29.75,WSW,241,0.0,4.0,97,0.00,,---,0.00,VWS V14.01,2013-09-10 08:16:00,
2013-09-10 01:21:00,57.2,56.4,29.75,WSW,241,0.0,4.0,97,0.00,,---,0.00,VWS V14.01,2013-09-10 08:21:00,
2013-09-10 01:26:00,57.2,56.4,29.75,WSW,241,0.0,4.0,97,0.00,,---,0.00,VWS V14.01,2013-09-10 08:26:00,
2013-09-10 01:31:00,57.0,56.2,29.75,WSW,241,0.0,4.0,97,0.00,,---,0.00,VWS V14.01,2013-09-10 08:31:00,
2013-09-10 01:36:00,57.0,56.2,29.75,WSW,241,0.0,0.0,97,0.00,,---,0.00,VWS V14.01,2013-09-10 08:36:00,
2013-09-10 01:41:00,57.0,56.2,29.75,WSW,242,0.0,4.0,97,0.00,,---,0.00,VWS V14.01,2013-09-10 08:41:00,
2013-09-10 01:46:00,57.0,56.2,29.75,WSW,241,4.0,4.0,97,0.00,,---,0.00,VWS V14.01,2013-09-10 08:46:00,
2013-09-10 01:51:00,57.0,56.2,29.75,WSW,241,0.0,4.0,97,0.00,,---,0.00,VWS V14.01,2013-09-10 08:51:00,
2013-09-10 01:56:00,57.0,56.4,29.75,WSW,241,0.0,4.0,98,0.00,,---,0.00,VWS V14.01,2013-09-10 08:56:00,
2013-09-10 02:01:00,57.0,56.2,29.75,WSW,241,0.0,4.0,97,0.00,,---,0.00,VWS V14.01,2013-09-10 09:01:00,
2013-09-10 02:06:00,56.9,56.1,29.75,WSW,241,2.0,4.0,97,0.00,,---,0.00,VWS V14.01,2013-09-10 09:06:00,
2013-09-10 02:11:00,56.6,55.8,29.75,WSW,241,0.0,5.0,97,0.00,,---,0.00,VWS V14.01,2013-09-10 09:11:00,
2013-09-10 02:16:00,56.6,56.0,29.75,WSW,241,3.0,6.0,98,0.00,,---,0.00,VWS V14.01,2013-09-10 09:16:00,
2013-09-10 02:22:00,56.6,56.0,29.76,SW,232,0.0,6.0,98,0.00,,---,0.00,VWS V14.01,2013-09-10 09:22:00,
2013-09-10 02:27:00,56.6,56.0,29.76,SW,228,0.0,6.0,98,0.00,,---,0.00,VWS V14.01,2013-09-10 09:27:00,
2013-09-10 02:32:00,56.6,56.0,29.76,WSW,244,0.0,6.0,98,0.00,,---,0.00,VWS V14.01,2013-09-10 09:32:00,
2013-09-10 02:37:00,56.7,56.1,29.75,WSW,244,0.0,0.0,98,0.00,,---,0.00,VWS V14.01,2013-09-10 09:37:00,
2013-09-10 02:42:00,56.7,56.1,29.75,West,268,0.0,3.0,98,0.00,,---,0.00,VWS V14.01,2013-09-10 09:42:00,
2013-09-10 02:47:00,56.7,56.1,29.75,West,269,0.0,3.0,98,0.00,,---,0.00,VWS V14.01,2013-09-10 09:47:00,
2013-09-10 02:52:00,56.7,56.1,29.75,West,269,0.0,3.0,98,0.00,,---,0.00,VWS V14.01,2013-09-10 09:52:00,
2013-09-10 02:57:00,56.7,56.1,29.75,West,269,1.0,4.0,98,0.00,,---,0.00,VWS V14.01,2013-09-10 09:57:00,
2013-09-10 03:02:00,56.7,56.1,29.75,WSW,242,0.0,5.0,98,0.00,,---,0.00,VWS V14.01,2013-09-10 10:02:00,
2013-09-10 03:07:00,56.7,56.1,29.75,WSW,244,0.0,1.0,98,0.00,,---,0.00,VWS V14.01,2013-09-10 10:07:00,
2013-09-10 03:12:00,56.7,56.1,29.75,WSW,246,2.0,5.0,98,0.00,,---,0.00,VWS V14.01,2013-09-10 10:12:00,
2013-09-10 03:17:00,56.6,56.0,29.75,WSW,252,2.0,6.0,98,0.00,,---,0.00,VWS V14.01,2013-09-10 10:17:00,
2013-09-10 03:22:00,56.3,55.8,29.75,WSW,245,3.0,6.0,98,0.00,,---,0.00,VWS V14.01,2013-09-10 10:22:00,
2013-09-10 03:27:00,56.2,55.7,29.75,WSW,237,3.0,6.0,98,0.00,,---,0.00,VWS V14.01,2013-09-10 10:27:00,
2013-09-10 03:32:00,56.2,55.7,29.75,West,259,4.0,6.0,98,0.00,,---,0.00,VWS V14.01,2013-09-10 10:32:00,
2013-09-10 03:38:00,56.3,55.8,29.75,WSW,254,3.0,3.0,98,0.00,,---,0.00,VWS V14.01,2013-09-10 10:38:00,
2013-09-10 03:43:00,56.3,55.8,29.75,West,259,0.0,5.0,98,0.00,,---,0.00,VWS V14.01,2013-09-10 10:43:00,
2013-09-10 03:48:00,56.5,55.9,29.75,West,261,3.0,5.0,98,0.00,,---,0.00,VWS V14.01,2013-09-10 10:48:00,
2013-09-10 03:53:00,56.5,55.9,29.75,West,261,0.0,5.0,98,0.00,,---,0.00,VWS V14.01,2013-09-10 10:53:00,
2013-09-10 03:58:00,56.5,55.9,29.75,West,261,0.0,5.0,98,0.00,,---,0.00,VWS V14.01,2013-09-10 10:58:00,
2013-09-10 04:03:00,56.5,55.9,29.75,West,261,0.0,5.0,98,0.00,,---,0.00,VWS V14.01,2013-09-10 11:03:00,
2013-09-10 04:08:00,56.6,56.0,29.75,West,261,0.0,4.0,98,0.00,,---,0.00,VWS V14.01,2013-09-10 11:08:00,
2013-09-10 04:13:00,56.6,56.0,29.75,West,261,0.0,4.0,98,0.00,,---,0.00,VWS V14.01,2013-09-10 11:13:00,
2013-09-10 04:18:00,56.6,56.0,29.75,West,261,0.0,4.0,98,0.00,,---,0.00,VWS V14.01,2013-09-10 11:18:00,
2013-09-10 04:23:00,56.6,56.0,29.75,West,261,0.0,-999.0,98,-99.99,,,0.00,weatherlink.com 1.10,2013-09-10 11:23:00,
2013-09-10 04:28:00,56.6,56.0,29.75,West,261,0.0,4.0,98,0.00,,---,0.00,VWS V14.01,2013-09-10 11:28:00,
2013-09-10 04:33:00,56.7,56.1,29.75,West,261,0.0,4.0,98,0.00,,---,0.00,VWS V14.01,2013-09-10 11:33:00,
2013-09-10 04:38:00,56.9,56.3,29.75,West,261,0.0,3.0,98,0.00,,---,0.00,VWS V14.01,2013-09-10 11:38:00,
2013-09-10 04:43:00,56.9,56.3,29.75,WSW,258,0.0,5.0,98,0.00,,---,0.00,VWS V14.01,2013-09-10 11:43:00,
2013-09-10 04:49:00,56.7,56.1,29.75,WSW,257,5.0,5.0,98,0.00,,---,0.00,VWS V14.01,2013-09-10 11:49:00,
2013-09-10 04:54:00,56.7,56.1,29.75,WSW,251,0.0,5.0,98,0.00,,---,0.00,VWS V14.01,2013-09-10 11:54:00,
2013-09-10 04:59:00,56.7,56.1,29.75,WSW,251,0.0,5.0,98,0.00,,---,0.00,VWS V14.01,2013-09-10 11:59:00,
2013-09-10 05:04:00,56.9,56.3,29.75,WSW,252,0.0,5.0,98,0.00,,---,0.00,VWS V14.01,2013-09-10 12:04:00,
2013-09-10 05:09:00,56.9,56.3,29.75,WSW,252,0.0,3.0,98,0.00,,---,0.00,VWS V14.01,2013-09-10 12:09:00,
2013-09-10 05:14:00,57.0,56.4,29.75,WSW,248,0.0,3.0,98,0.00,,---,0.00,VWS V14.01,2013-09-10 12:14:00,
2013-09-10 05:19:00,56.9,56.3,29.75,WSW,246,0.0,3.0,98,0.00,,---,0.00,VWS V14.01,2013-09-10 12:19:00,
2013-09-10 05:24:00,56.9,56.3,29.76,WSW,247,0.0,4.0,98,0.00,,---,0.00,VWS V14.01,2013-09-10 12:24:00,
2013-09-10 05:29:00,56.9,56.3,29.76,WSW,245,0.0,4.0,98,0.00,,---,0.00,VWS V14.01,2013-09-10 12:29:00,
2013-09-10 05:34:00,56.9,56.3,29.76,WSW,245,0.0,4.0,98,0.00,,---,0.00,VWS V14.01,2013-09-10 12:34:00,
2013-09-10 05:39:00,57.0,56.4,29.76,WSW,245,0.0,2.0,98,0.00,,---,0.00,VWS V14.01,2013-09-10 12:39:00,
2013-09-10 05:44:00,56.9,56.3,29.76,WSW,242,2.0,6.0,98,0.00,,---,0.00,VWS V14.01,2013-09-10 12:44:00,
2013-09-10 05:49:00,56.9,56.3,29.76,West,269,0.0,6.0,98,0.00,,---,0.00,VWS V14.01,2013-09-10 12:49:00,
2013-09-10 05:54:00,56.9,56.3,29.76,West,277,4.0,6.0,98,0.00,,---,0.00,VWS V14.01,2013-09-10 12:54:00,
2013-09-10 05:59:00,56.9,56.3,29.76,West,277,0.0,6.0,98,0.00,,---,0.00,VWS V14.01,2013-09-10 12:59:00,
2013-09-10 06:04:00,57.0,56.7,29.76,West,277,0.0,6.0,99,0.00,,---,0.00,VWS V14.01,2013-09-10 13:04:00,
2013-09-10 06:10:00,57.0,56.4,29.77,West,277,0.0,2.0,98,0.00,,---,0.00,VWS V14.01,2013-09-10 13:10:00,
2013-09-10 06:15:00,57.0,56.7,29.77,West,277,0.0,2.0,99,0.00,,---,0.00,VWS V14.01,2013-09-10 13:15:00,
2013-09-10 06:20:00,57.0,56.4,29.77,West,277,0.0,3.0,98,0.00,,---,0.00,VWS V14.01,2013-09-10 13:20:00,
2013-09-10 06:25:00,57.0,56.7,29.77,West,277,0.0,4.0,99,0.00,,---,0.00,VWS V14.01,2013-09-10 13:25:00,
2013-09-10 06:30:00,57.0,56.4,29.77,West,275,0.0,5.0,98,0.00,,---,0.00,VWS V14.01,2013-09-10 13:30:00,
2013-09-10 06:35:00,57.0,56.4,29.78,West,275,0.0,5.0,98,0.00,,---,0.00,VWS V14.01,2013-09-10 13:35:00,
2013-09-10 06:40:00,57.0,56.7,29.78,West,275,2.0,4.0,99,0.01,,---,0.01,VWS V14.01,2013-09-10 13:40:00,
2013-09-10 06:45:00,57.0,56.7,29.78,West,275,0.0,4.0,99,0.01,,---,0.01,VWS V14.01,2013-09-10 13:45:00,
2013-09-10 06:50:00,57.0,56.7,29.78,WSW,253,1.0,4.0,99,0.01,,---,0.01,VWS V14.01,2013-09-10 13:50:00,
2013-09-10 06:55:00,57.2,56.9,29.78,WSW,253,0.0,4.0,99,0.01,,---,0.01,VWS V14.01,2013-09-10 13:55:00,
2013-09-10 07:00:00,57.2,56.9,29.78,SW,232,2.0,4.0,99,0.01,,---,0.01,VWS V14.01,2013-09-10 14:00:00,
2013-09-10 07:05:00,57.2,56.9,29.78,SW,235,2.0,4.0,99,0.01,,---,0.01,VWS V14.01,2013-09-10 14:05:00,
2013-09-10 07:10:00,57.2,56.9,29.78,WSW,243,0.0,6.0,99,0.01,,---,0.01,VWS V14.01,2013-09-10 14:10:00,
2013-09-10 07:15:00,57.2,57.2,29.78,SW,225,3.0,7.0,100,0.01,,---,0.01,VWS V14.01,2013-09-10 14:15:00,
2013-09-10 07:21:00,57.0,56.7,29.79,WSW,248,2.0,7.0,99,0.01,,---,0.01,VWS V14.01,2013-09-10 14:21:00,
2013-09-10 07:26:00,57.0,56.7,29.79,WSW,246,2.0,7.0,99,0.01,,---,0.01,VWS V14.01,2013-09-10 14:26:00,
2013-09-10 07:31:00,57.0,56.7,29.79,West,271,0.0,7.0,99,0.01,,---,0.01,VWS V14.01,2013-09-10 14:31:00,
2013-09-10 07:36:00,57.0,56.7,29.79,WSW,252,0.0,3.0,99,0.01,,---,0.01,VWS V14.01,2013-09-10 14:36:00,
2013-09-10 07:41:00,57.0,57.0,29.79,WSW,250,0.0,-999.0,99,-99.99,,,0.01,weatherlink.com 1.10,2013-09-10 14:41:00,
2013-09-10 07:46:00,57.2,56.9,29.79,WSW,253,3.0,6.0,99,0.01,,---,0.01,VWS V14.01,2013-09-10 14:46:00,
2013-09-10 07:51:00,57.0,56.7,29.80,WSW,249,4.0,6.0,99,0.01,,---,0.01,VWS V14.01,2013-09-10 14:51:00,
2013-09-10 07:56:00,57.0,56.7,29.80,West,259,2.0,6.0,99,0.01,,---,0.01,VWS V14.01,2013-09-10 14:56:00,
2013-09-10 08:01:00,57.0,56.7,29.80,WSW,250,3.0,6.0,99,0.01,,---,0.01,VWS V14.01,2013-09-10 15:01:00,
2013-09-10 08:06:00,57.0,56.4,29.80,SW,217,0.0,0.0,98,0.00,,---,0.01,VWS V14.01,2013-09-10 15:06:00,
2013-09-10 08:11:00,56.9,56.3,29.80,SSW,196,0.0,5.0,98,0.00,,---,0.01,VWS V14.01,2013-09-10 15:11:00,
2013-09-10 08:16:00,56.9,56.3,29.80,WSW,239,0.0,6.0,98,0.00,,---,0.01,VWS V14.01,2013-09-10 15:16:00,
2013-09-10 08:21:00,57.0,56.4,29.81,WSW,257,0.0,6.0,98,0.00,,---,0.01,VWS V14.01,2013-09-10 15:21:00,
2013-09-10 08:26:00,57.0,56.4,29.81,WSW,257,0.0,6.0,98,0.00,,---,0.01,VWS V14.01,2013-09-10 15:26:00,
2013-09-10 08:31:00,57.3,56.7,29.81,WSW,251,0.0,7.0,98,0.00,,---,0.01,VWS V14.01,2013-09-10 15:31:00,
2013-09-10 08:36:00,57.5,56.9,29.81,WSW,258,1.0,3.0,98,0.00,,---,0.01,VWS V14.01,2013-09-10 15:36:00,
2013-09-10 08:41:00,57.6,57.0,29.81,WSW,243,0.0,3.0,98,0.00,,---,0.01,VWS V14.01,2013-09-10 15:41:00,
2013-09-10 08:46:00,57.6,57.0,29.81,West,281,1.0,6.0,98,0.00,,---,0.01,VWS V14.01,2013-09-10 15:46:00,
2013-09-10 08:51:00,58.0,57.4,29.82,West,277,0.0,6.0,98,0.00,,---,0.01,VWS V14.01,2013-09-10 15:51:00,
2013-09-10 08:57:00,58.0,57.4,29.82,West,261,3.0,6.0,98,0.00,,---,0.01,VWS V14.01,2013-09-10 15:57:00,
2013-09-10 09:02:00,58.1,57.5,29.82,WSW,246,1.0,6.0,98,0.00,,---,0.01,VWS V14.01,2013-09-10 16:02:00,
2013-09-10 09:07:00,58.3,57.7,29.82,WSW,245,3.0,3.0,98,0.00,,---,0.01,VWS V14.01,2013-09-10 16:07:00,
2013-09-10 09:12:00,58.4,57.8,29.82,WSW,245,0.0,3.0,98,0.00,,---,0.01,VWS V14.01,2013-09-10 16:12:00,
2013-09-10 09:17:00,58.6,57.8,29.82,WSW,245,0.0,3.0,97,0.00,,---,0.01,VWS V14.01,2013-09-10 16:17:00,
2013-09-10 09:22:00,58.7,57.8,29.82,West,269,0.0,4.0,97,0.00,,---,0.01,VWS V14.01,2013-09-10 16:22:00,
2013-09-10 09:27:00,58.9,58.0,29.82,West,269,0.0,4.0,97,0.00,,---,0.01,VWS V14.01,2013-09-10 16:27:00,
2013-09-10 09:32:00,58.9,58.0,29.82,West,275,0.0,5.0,97,0.00,,---,0.01,VWS V14.01,2013-09-10 16:32:00,
2013-09-10 09:37:00,58.9,58.0,29.83,West,281,2.0,4.0,97,0.00,,---,0.01,VWS V14.01,2013-09-10 16:37:00,
2013-09-10 09:42:00,59.0,58.2,29.83,WSW,250,4.0,6.0,97,0.00,,---,0.01,VWS V14.01,2013-09-10 16:42:00,
2013-09-10 09:47:00,59.0,58.2,29.83,West,259,0.0,6.0,97,0.00,,---,0.01,VWS V14.01,2013-09-10 16:47:00,
2013-09-10 09:52:00,59.2,58.3,29.83,WSW,252,4.0,6.0,97,0.00,,---,0.01,VWS V14.01,2013-09-10 16:52:00,
2013-09-10 09:57:00,59.3,58.5,29.83,West,271,0.0,6.0,97,0.00,,---,0.01,VWS V14.01,2013-09-10 16:57:00,
2013-09-10 10:02:00,59.3,58.5,29.83,West,262,2.0,6.0,97,0.00,,---,0.01,VWS V14.01,2013-09-10 17:02:00,
2013-09-10 10:07:00,59.5,58.7,29.83,West,265,0.0,3.0,97,0.00,,---,0.01,VWS V14.01,2013-09-10 17:07:00,
2013-09-10 10:13:00,59.5,58.7,29.83,West,261,0.0,4.0,97,0.00,,---,0.01,VWS V14.01,2013-09-10 17:13:00,
2013-09-10 10:18:00,59.3,58.5,29.83,WSW,256,0.0,4.0,97,0.00,,---,0.01,VWS V14.01,2013-09-10 17:18:00,
2013-09-10 10:23:00,59.8,59.0,29.83,West,268,0.0,4.0,97,0.00,,---,0.01,VWS V14.01,2013-09-10 17:23:00,
2013-09-10 10:28:00,59.8,58.7,29.83,West,261,3.0,5.0,96,0.00,,---,0.01,VWS V14.01,2013-09-10 17:28:00,
2013-09-10 10:33:00,59.6,58.5,29.83,West,275,0.0,6.0,96,0.00,,---,0.01,VWS V14.01,2013-09-10 17:33:00,
2013-09-10 10:38:00,59.8,58.7,29.83,West,267,0.0,0.0,96,0.00,,---,0.01,VWS V14.01,2013-09-10 17:38:00,
2013-09-10 10:43:00,59.9,58.8,29.83,WNW,286,0.0,4.0,96,0.00,,---,0.01,VWS V14.01,2013-09-10 17:43:00,
2013-09-10 10:48:00,59.9,58.8,29.83,WSW,248,0.0,4.0,96,0.00,,---,0.01,VWS V14.01,2013-09-10 17:48:00,
2013-09-10 10:53:00,59.9,58.8,29.83,West,271,0.0,6.0,96,0.00,,---,0.01,VWS V14.01,2013-09-10 17:53:00,
2013-09-10 10:58:00,59.8,59.0,29.84,NW,319,1.0,-999.0,96,-99.99,,,0.01,weatherlink.com 1.10,2013-09-10 17:58:00,
2013-09-10 11:03:00,59.8,58.7,29.83,West,274,2.0,7.0,96,0.00,,---,0.01,VWS V14.01,2013-09-10 18:03:00,
2013-09-10 11:08:00,59.9,58.8,29.84,WSW,255,1.0,5.0,96,0.00,,---,0.01,VWS V14.01,2013-09-10 18:08:00,
2013-09-10 11:14:00,59.9,58.8,29.84,West,259,2.0,7.0,96,0.00,,---,0.01,VWS V14.01,2013-09-10 18:14:00,
2013-09-10 11:19:00,59.9,58.8,29.84,WSW,238,4.0,10.0,96,0.00,,---,0.01,VWS V14.01,2013-09-10 18:19:00,
2013-09-10 11:24:00,59.8,58.7,29.84,WSW,250,3.0,10.0,96,0.00,,---,0.01,VWS V14.01,2013-09-10 18:24:00,
2013-09-10 11:29:00,59.8,58.7,29.84,WSW,254,5.0,10.0,96,0.00,,---,0.01,VWS V14.01,2013-09-10 18:29:00,
2013-09-10 11:34:00,59.9,58.8,29.84,West,267,5.0,10.0,96,0.00,,---,0.01,VWS V14.01,2013-09-10 18:34:00,
2013-09-10 11:39:00,60.2,58.8,29.84,West,271,5.0,8.0,95,0.00,,---,0.01,VWS V14.01,2013-09-10 18:39:00,
2013-09-10 11:44:00,60.4,58.7,29.84,WSW,244,8.0,10.0,94,0.00,,---,0.01,VWS V14.01,2013-09-10 18:44:00,
2013-09-10 11:49:00,60.7,58.7,29.84,WSW,255,4.0,10.0,93,0.00,,---,0.01,VWS V14.01,2013-09-10 18:49:00,
2013-09-10 11:54:00,60.9,58.6,29.84,SW,225,2.0,11.0,92,0.00,,---,0.01,VWS V14.01,2013-09-10 18:54:00,
2013-09-10 11:59:00,61.0,58.4,29.84,SW,226,3.0,12.0,91,0.00,,---,0.01,VWS V14.01,2013-09-10 18:59:00,
2013-09-10 12:04:00,61.2,58.2,29.84,SSW,213,6.0,12.0,90,0.00,,---,0.01,VWS V14.01,2013-09-10 19:04:00,
2013-09-10 12:09:00,61.5,58.5,29.84,WSW,250,6.0,11.0,90,0.00,,---,0.01,VWS V14.01,2013-09-10 19:09:00,
2013-09-10 12:14:00,61.6,58.0,29.84,SSW,197,7.0,15.0,88,0.00,,---,0.01,VWS V14.01,2013-09-10 19:14:00,
2013-09-10 12:19:00,62.0,58.4,29.84,WSW,246,5.0,15.0,88,0.00,,---,0.01,VWS V14.01,2013-09-10 19:19:00,
2013-09-10 12:24:00,62.1,57.9,29.84,SW,217,2.0,15.0,86,0.00,,---,0.01,VWS V14.01,2013-09-10 19:24:00,
2013-09-10 12:30:00,62.3,57.7,29.84,SSW,205,4.0,15.0,85,0.00,,---,0.01,VWS V14.01,2013-09-10 19:30:00,
2013-09-10 12:35:00,62.9,58.3,29.85,SW,217,5.0,15.0,85,0.00,,---,0.01,VWS V14.01,2013-09-10 19:35:00,
2013-09-10 12:40:00,62.9,57.3,29.85,WSW,244,5.0,13.0,82,0.00,,---,0.01,VWS V14.01,2013-09-10 19:40:00,
2013-09-10 12:45:00,62.9,57.7,29.85,SSW,210,7.0,16.0,83,0.00,,---,0.01,VWS V14.01,2013-09-10 19:45:00,
2013-09-10 12:50:00,63.1,57.9,29.85,WSW,242,4.0,16.0,83,0.00,,---,0.01,VWS V14.01,2013-09-10 19:50:00,
2013-09-10 12:55:00,63.4,57.8,29.85,SSW,213,10.0,16.0,82,0.00,,---,0.01,VWS V14.01,2013-09-10 19:55:00,
2013-09-10 13:00:00,63.9,58.0,29.85,SW,229,3.0,16.0,81,0.00,,---,0.01,VWS V14.01,2013-09-10 20:00:00,
2013-09-10 13:05:00,64.3,58.0,29.84,WSW,237,5.0,16.0,80,0.00,,---,0.01,VWS V14.01,2013-09-10 20:05:00,
2013-09-10 13:10:00,64.8,58.1,29.84,West,266,5.0,9.0,79,0.00,,---,0.01,VWS V14.01,2013-09-10 20:10:00,
2013-09-10 13:15:00,65.3,58.3,29.84,WSW,241,0.0,13.0,78,0.00,,---,0.01,VWS V14.01,2013-09-10 20:15:00,
2013-09-10 13:20:00,65.8,58.0,29.84,WSW,257,7.0,13.0,76,0.00,,---,0.01,VWS V14.01,2013-09-10 20:20:00,
2013-09-10 13:25:00,65.8,58.4,29.84,WNW,288,5.0,13.0,77,0.00,,---,0.01,VWS V14.01,2013-09-10 20:25:00,
2013-09-10 13:30:00,65.6,58.2,29.84,WSW,251,6.0,13.0,77,0.00,,---,0.01,VWS V14.01,2013-09-10 20:30:00,
2013-09-10 13:35:00,65.6,58.2,29.84,SSW,210,8.0,13.0,77,0.00,,---,0.01,VWS V14.01,2013-09-10 20:35:00,
2013-09-10 13:40:00,65.8,58.4,29.84,SW,234,7.0,13.0,77,0.00,,---,0.01,VWS V14.01,2013-09-10 20:40:00,
2013-09-10 13:46:00,65.6,58.2,29.84,West,261,1.0,13.0,77,0.00,,---,0.01,VWS V14.01,2013-09-10 20:46:00,
2013-09-10 13:51:00,65.8,58.0,29.84,WSW,238,9.0,13.0,76,0.00,,---,0.01,VWS V14.01,2013-09-10 20:51:00,
2013-09-10 13:56:00,66.0,58.6,29.84,WSW,246,5.0,13.0,77,0.00,,---,0.01,VWS V14.01,2013-09-10 20:56:00,
2013-09-10 14:01:00,66.3,58.5,29.84,West,269,4.0,13.0,76,0.00,,---,0.01,VWS V14.01,2013-09-10 21:01:00,
2013-09-10 14:06:00,66.1,58.3,29.83,NNE,27,6.0,10.0,76,0.00,,---,0.01,VWS V14.01,2013-09-10 21:06:00,
2013-09-10 14:11:00,65.8,58.0,29.83,SW,221,10.0,15.0,76,0.00,,---,0.01,VWS V14.01,2013-09-10 21:11:00,
2013-09-10 14:16:00,66.0,58.6,29.83,WSW,252,10.0,15.0,77,0.00,,---,0.01,VWS V14.01,2013-09-10 21:16:00,
2013-09-10 14:21:00,66.0,58.6,29.84,West,261,3.0,15.0,77,0.00,,---,0.01,VWS V14.01,2013-09-10 21:21:00,
2013-09-10 14:26:00,66.3,58.5,29.84,SSW,209,9.0,15.0,76,0.00,,---,0.01,VWS V14.01,2013-09-10 21:26:00,
2013-09-10 14:31:00,66.1,58.3,29.84,SW,230,3.0,15.0,76,0.00,,---,0.01,VWS V14.01,2013-09-10 21:31:00,
2013-09-10 14:36:00,66.1,58.7,29.83,WNW,291,10.0,10.0,77,0.00,,---,0.01,VWS V14.01,2013-09-10 21:36:00,
2013-09-10 14:41:00,66.1,58.7,29.83,WSW,238,3.0,10.0,77,0.00,,---,0.01,VWS V14.01,2013-09-10 21:41:00,
2013-09-10 14:46:00,66.3,58.9,29.83,WNW,290,6.0,12.0,77,0.00,,---,0.01,VWS V14.01,2013-09-10 21:46:00,
2013-09-10 14:52:00,66.4,58.6,29.83,WSW,246,10.0,12.0,76,0.00,,---,0.01,VWS V14.01,2013-09-10 21:52:00,
2013-09-10 14:57:00,66.9,58.7,29.83,West,272,4.0,12.0,75,0.00,,---,0.01,VWS V14.01,2013-09-10 21:57:00,
2013-09-10 15:02:00,67.3,58.7,29.83,SW,224,4.0,13.0,74,0.00,,---,0.01,VWS V14.01,2013-09-10 22:02:00,
2013-09-10 15:07:00,67.6,58.7,29.83,WSW,250,4.0,11.0,73,0.00,,---,0.01,VWS V14.01,2013-09-10 22:07:00,
2013-09-10 15:12:00,67.8,58.8,29.83,WNW,288,3.0,13.0,73,0.00,,---,0.01,VWS V14.01,2013-09-10 22:12:00,
2013-09-10 15:17:00,67.9,58.9,29.83,WSW,248,12.0,13.0,73,0.00,,---,0.01,VWS V14.01,2013-09-10 22:17:00,
2013-09-10 15:22:00,67.3,58.7,29.83,WSW,244,6.0,15.0,74,0.00,,---,0.01,VWS V14.01,2013-09-10 22:22:00,
2013-09-10 15:27:00,67.1,58.2,29.83,WNW,290,8.0,15.0,73,0.00,,---,0.01,VWS V14.01,2013-09-10 22:27:00,
2013-09-10 15:32:00,67.3,58.4,29.83,WSW,255,8.0,15.0,73,0.00,,---,0.01,VWS V14.01,2013-09-10 22:32:00,
2013-09-10 15:37:00,67.3,58.0,29.83,SSW,211,8.0,-999.0,73,-99.99,,,0.01,weatherlink.com 1.10,2013-09-10 22:37:00,
2013-09-10 15:42:00,66.8,58.3,29.83,WSW,257,5.0,12.0,74,0.00,,---,0.01,VWS V14.01,2013-09-10 22:42:00,
2013-09-10 15:47:00,66.4,57.9,29.83,WSW,244,5.0,14.0,74,0.00,,---,0.01,VWS V14.01,2013-09-10 22:47:00,
2013-09-10 15:52:00,66.1,58.0,29.83,WSW,255,5.0,14.0,75,0.00,,---,0.01,VWS V14.01,2013-09-10 22:52:00,
2013-09-10 15:58:00,66.1,57.6,29.83,West,259,5.0,14.0,74,0.00,,---,0.01,VWS V14.01,2013-09-10 22:58:00,
2013-09-10 16:03:00,66.1,58.0,29.83,West,279,7.0,14.0,75,0.00,,---,0.01,VWS V14.01,2013-09-10 23:03:00,
2013-09-10 16:08:00,66.1,58.0,29.83,SW,236,5.0,13.0,75,0.00,,---,0.01,VWS V14.01,2013-09-10 23:08:00,
2013-09-10 16:13:00,66.3,58.2,29.83,WSW,238,5.0,13.0,75,0.00,,---,0.01,VWS V14.01,2013-09-10 23:13:00,
2013-09-10 16:18:00,66.1,58.3,29.83,SSW,210,5.0,15.0,76,0.00,,---,0.01,VWS V14.01,2013-09-10 23:18:00,
2013-09-10 16:23:00,66.0,57.9,29.83,WSW,252,5.0,15.0,75,0.00,,---,0.01,VWS V14.01,2013-09-10 23:23:00,
2013-09-10 16:28:00,65.8,57.7,29.83,West,263,8.0,15.0,75,0.00,,---,0.01,VWS V14.01,2013-09-10 23:28:00,
2013-09-10 16:33:00,65.6,57.8,29.83,WSW,249,8.0,15.0,76,0.00,,---,0.01,VWS V14.01,2013-09-10 23:33:00,
2013-09-10 16:38:00,65.5,57.7,29.83,WSW,242,7.0,11.0,76,0.00,,---,0.01,VWS V14.01,2013-09-10 23:38:00,
2013-09-10 16:43:00,65.5,57.7,29.83,WSW,251,3.0,11.0,76,0.00,,---,0.01,VWS V14.01,2013-09-10 23:43:00,
2013-09-10 16:48:00,65.6,57.8,29.83,WSW,248,3.0,12.0,76,0.00,,---,0.01,VWS V14.01,2013-09-10 23:48:00,
2013-09-10 16:53:00,65.5,57.7,29.83,West,269,8.0,14.0,76,0.00,,---,0.01,VWS V14.01,2013-09-10 23:53:00,
2013-09-10 16:58:00,65.5,58.1,29.83,West,267,6.0,14.0,77,0.00,,---,0.01,VWS V14.01,2013-09-10 23:58:00,
2013-09-10 17:03:00,65.5,58.1,29.83,West,270,8.0,14.0,77,0.00,,---,0.01,VWS V14.01,2013-09-11 00:03:00,
2013-09-10 17:09:00,65.3,57.9,29.83,WNW,288,2.0,10.0,77,0.00,,---,0.01,VWS V14.01,2013-09-11 00:09:00,
2013-09-10 17:14:00,65.3,57.9,29.83,WNW,290,7.0,12.0,77,0.00,,---,0.01,VWS V14.01,2013-09-11 00:14:00,
2013-09-10 17:19:00,65.2,57.8,29.83,SW,215,6.0,12.0,77,0.00,,---,0.01,VWS V14.01,2013-09-11 00:19:00,
2013-09-10 17:24:00,65.0,57.6,29.83,SW,230,7.0,15.0,77,0.00,,---,0.01,VWS V14.01,2013-09-11 00:24:00,
2013-09-10 17:29:00,64.7,57.7,29.83,WSW,250,6.0,16.0,78,0.00,,---,0.01,VWS V14.01,2013-09-11 00:29:00,
2013-09-10 17:34:00,64.7,57.7,29.83,West,281,2.0,16.0,78,0.00,,---,0.01,VWS V14.01,2013-09-11 00:34:00,
2013-09-10 17:39:00,64.7,58.0,29.84,SW,236,5.0,8.0,79,0.00,,---,0.01,VWS V14.01,2013-09-11 00:39:00,
2013-09-10 17:44:00,64.8,57.8,29.84,WSW,252,5.0,9.0,78,0.00,,---,0.01,VWS V14.01,2013-09-11 00:44:00,
2013-09-10 17:49:00,64.8,57.8,29.84,WSW,248,3.0,9.0,78,0.00,,---,0.01,VWS V14.01,2013-09-11 00:49:00,
2013-09-10 17:54:00,64.7,58.0,29.84,West,263,4.0,9.0,79,0.00,,---,0.01,VWS V14.01,2013-09-11 00:54:00,
2013-09-10 17:59:00,64.7,58.0,29.84,WNW,287,5.0,9.0,79,0.00,,---,0.01,VWS V14.01,2013-09-11 00:59:00,
2013-09-10 18:04:00,64.5,58.2,29.84,West,279,4.0,9.0,80,0.00,,---,0.01,VWS V14.01,2013-09-11 01:04:00,
2013-09-10 18:09:00,64.5,58.2,29.84,WSW,251,8.0,8.0,80,0.00,,---,0.01,VWS V14.01,2013-09-11 01:09:00,
2013-09-10 18:14:00,64.3,58.0,29.84,West,271,2.0,8.0,80,0.00,,---,0.01,VWS V14.01,2013-09-11 01:14:00,
2013-09-10 18:20:00,64.3,58.0,29.84,WSW,255,2.0,8.0,80,0.00,,---,0.01,VWS V14.01,2013-09-11 01:20:00,
2013-09-10 18:25:00,64.2,57.9,29.84,WSW,240,2.0,8.0,80,0.00,,---,0.01,VWS V14.01,2013-09-11 01:25:00,
2013-09-10 18:30:00,64.0,57.7,29.84,WSW,245,4.0,10.0,80,0.00,,---,0.01,VWS V14.01,2013-09-11 01:30:00,
2013-09-10 18:35:00,63.9,57.6,29.85,WSW,243,5.0,10.0,80,0.00,,---,0.01,VWS V14.01,2013-09-11 01:35:00,
2013-09-10 18:40:00,63.5,57.2,29.85,SW,234,4.0,11.0,80,0.00,,---,0.01,VWS V14.01,2013-09-11 01:40:00,
2013-09-10 18:45:00,63.4,57.5,29.85,WSW,250,4.0,11.0,81,0.00,,---,0.01,VWS V14.01,2013-09-11 01:45:00,
2013-09-10 18:50:00,63.2,57.3,29.85,WSW,240,5.0,14.0,81,0.00,,---,0.01,VWS V14.01,2013-09-11 01:50:00,
2013-09-10 18:55:00,63.2,57.3,29.85,SW,233,4.0,14.0,81,0.00,,---,0.01,VWS V14.01,2013-09-11 01:55:00,
2013-09-10 19:00:00,63.1,57.2,29.85,WSW,244,7.0,14.0,81,0.00,,---,0.01,VWS V14.01,2013-09-11 02:00:00,
2013-09-10 19:05:00,63.1,57.2,29.85,WSW,251,4.0,14.0,81,0.00,,---,0.01,VWS V14.01,2013-09-11 02:05:00,
2013-09-10 19:10:00,63.1,57.2,29.85,SW,225,8.0,8.0,81,0.00,,---,0.01,VWS V14.01,2013-09-11 02:10:00,
2013-09-10 19:15:00,63.1,57.2,29.85,SW,228,6.0,10.0,81,0.00,,---,0.01,VWS V14.01,2013-09-11 02:15:00,
2013-09-10 19:20:00,62.9,57.0,29.85,SW,229,2.0,10.0,81,0.00,,---,0.01,VWS V14.01,2013-09-11 02:20:00,
2013-09-10 19:25:00,62.9,57.0,29.85,WSW,242,8.0,11.0,81,0.00,,---,0.01,VWS V14.01,2013-09-11 02:25:00,
2013-09-10 19:30:00,62.9,57.3,29.85,WSW,249,8.0,11.0,82,0.00,,---,0.01,VWS V14.01,2013-09-11 02:30:00,
2013-09-10 19:36:00,62.9,57.3,29.86,WSW,253,0.0,1.0,82,0.00,,---,0.01,VWS V14.01,2013-09-11 02:36:00,
2013-09-10 19:41:00,62.7,57.5,29.86,WSW,238,3.0,9.0,83,0.00,,---,0.01,VWS V14.01,2013-09-11 02:41:00,
2013-09-10 19:46:00,62.7,57.5,29.86,West,260,0.0,9.0,83,0.00,,---,0.01,VWS V14.01,2013-09-11 02:46:00,
2013-09-10 19:51:00,62.7,57.5,29.86,WSW,246,3.0,9.0,83,0.00,,---,0.01,VWS V14.01,2013-09-11 02:51:00,
2013-09-10 19:56:00,62.7,57.5,29.86,WSW,252,0.0,9.0,83,0.00,,---,0.01,VWS V14.01,2013-09-11 02:56:00,
2013-09-10 20:01:00,62.6,57.4,29.86,WSW,241,0.0,9.0,83,0.00,,---,0.01,VWS V14.01,2013-09-11 03:01:00,
2013-09-10 20:06:00,62.6,57.4,29.86,SW,227,0.0,0.0,83,0.00,,---,0.01,VWS V14.01,2013-09-11 03:06:00,
2013-09-10 20:11:00,62.6,57.7,29.86,SW,236,3.0,6.0,84,0.00,,---,0.01,VWS V14.01,2013-09-11 03:11:00,
2013-09-10 20:16:00,62.4,57.5,29.86,WSW,240,0.0,6.0,84,0.00,,---,0.01,VWS V14.01,2013-09-11 03:16:00,
2013-09-10 20:21:00,62.4,57.5,29.86,WSW,242,2.0,6.0,84,0.00,,---,0.01,VWS V14.01,2013-09-11 03:21:00,
2013-09-10 20:26:00,62.3,57.4,29.86,WSW,250,5.0,6.0,84,0.00,,---,0.01,VWS V14.01,2013-09-11 03:26:00,
2013-09-10 20:31:00,62.3,57.4,29.86,West,260,4.0,6.0,84,0.00,,---,0.01,VWS V14.01,2013-09-11 03:31:00,
2013-09-10 20:36:00,62.3,57.4,29.87,SW,217,4.0,5.0,84,0.00,,---,0.01,VWS V14.01,2013-09-11 03:36:00,
2013-09-10 20:41:00,62.1,57.2,29.87,WSW,254,0.0,6.0,84,0.00,,---,0.01,VWS V14.01,2013-09-11 03:41:00,
2013-09-10 20:46:00,62.1,57.2,29.87,SSW,202,0.0,6.0,84,0.00,,---,0.01,VWS V14.01,2013-09-11 03:46:00,
2013-09-10 20:52:00,62.1,57.2,29.87,SW,232,0.0,6.0,84,0.00,,---,0.01,VWS V14.01,2013-09-11 03:52:00,
2013-09-10 20:57:00,62.1,57.2,29.87,SW,232,0.0,6.0,84,0.00,,---,0.01,VWS V14.01,2013-09-11 03:57:00,
2013-09-10 21:01:00,62.1,57.2,29.87,SW,221,0.0,6.0,84,0.00,,---,0.01,VWS V14.01,2013-09-11 04:01:00,
2013-09-10 21:02:00,62.1,57.2,29.87,SW,221,0.0,6.0,84,0.00,,---,0.01,VWS V14.01,2013-09-11 04:02:00,
2013-09-10 21:03:00,62.1,57.2,29.87,SW,221,0.0,6.0,84,0.00,,---,0.01,VWS V14.01,2013-09-11 04:03:00,
2013-09-10 21:08:00,62.1,57.2,29.88,WNW,296,4.0,6.0,84,0.00,,---,0.01,VWS V14.01,2013-09-11 04:08:00,
2013-09-10 21:13:00,62.3,57.4,29.88,West,276,0.0,6.0,84,0.00,,---,0.01,VWS V14.01,2013-09-11 04:13:00,
2013-09-10 21:18:00,62.1,57.2,29.88,SW,234,0.0,6.0,84,0.00,,---,0.01,VWS V14.01,2013-09-11 04:18:00,
2013-09-10 21:23:00,62.1,57.2,29.88,West,263,3.0,6.0,84,0.00,,---,0.01,VWS V14.01,2013-09-11 04:23:00,
2013-09-10 21:28:00,62.1,57.2,29.88,SW,233,0.0,6.0,84,0.00,,---,0.01,VWS V14.01,2013-09-11 04:28:00,
2013-09-10 21:33:00,62.1,57.2,29.88,SW,233,0.0,6.0,84,0.00,,---,0.01,VWS V14.01,2013-09-11 04:33:00,
2013-09-10 21:38:00,62.1,57.2,29.88,SW,233,0.0,0.0,84,0.00,,---,0.01,VWS V14.01,2013-09-11 04:38:00,
2013-09-10 21:43:00,62.1,57.2,29.88,SW,233,1.0,2.0,84,0.00,,---,0.01,VWS V14.01,2013-09-11 04:43:00,
2013-09-10 21:48:00,62.1,57.2,29.88,SW,229,2.0,5.0,84,0.00,,---,0.01,VWS V14.01,2013-09-11 04:48:00,
2013-09-10 21:53:00,62.1,57.5,29.88,SW,233,0.0,5.0,85,0.00,,---,0.01,VWS V14.01,2013-09-11 04:53:00,
2013-09-10 21:58:00,62.1,57.5,29.88,SW,234,0.0,5.0,85,0.00,,---,0.01,VWS V14.01,2013-09-11 04:58:00,
2013-09-10 22:03:00,62.1,57.5,29.88,West,273,2.0,5.0,85,0.00,,---,0.01,VWS V14.01,2013-09-11 05:03:00,
2013-09-10 22:08:00,62.1,57.2,29.88,West,270,0.0,3.0,84,0.00,,---,0.01,VWS V14.01,2013-09-11 05:08:00,
2013-09-10 22:13:00,62.1,57.2,29.88,West,277,0.0,3.0,84,0.00,,---,0.01,VWS V14.01,2013-09-11 05:13:00,
2013-09-10 22:18:00,62.1,57.2,29.88,SW,228,1.0,5.0,84,0.00,,---,0.01,VWS V14.01,2013-09-11 05:18:00,
2013-09-10 22:23:00,62.1,57.2,29.88,SW,227,0.0,5.0,84,0.00,,---,0.01,VWS V14.01,2013-09-11 05:23:00,
2013-09-10 22:28:00,62.1,57.2,29.88,SW,231,3.0,5.0,84,0.00,,---,0.01,VWS V14.01,2013-09-11 05:28:00,
2013-09-10 22:34:00,62.1,57.2,29.88,South,179,5.0,5.0,84,0.00,,---,0.01,VWS V14.01,2013-09-11 05:34:00,
2013-09-10 22:39:00,62.1,57.2,29.88,SW,216,1.0,4.0,84,0.00,,---,0.01,VWS V14.01,2013-09-11 05:39:00,
2013-09-10 22:44:00,62.0,57.1,29.88,West,263,0.0,6.0,84,0.00,,---,0.01,VWS V14.01,2013-09-11 05:44:00,
2013-09-10 22:49:00,62.0,57.1,29.88,SW,221,4.0,8.0,84,0.00,,---,0.01,VWS V14.01,2013-09-11 05:49:00,
2013-09-10 22:54:00,62.1,56.9,29.88,WSW,244,0.0,8.0,83,0.00,,---,0.01,VWS V14.01,2013-09-11 05:54:00,
2013-09-10 22:59:00,62.1,56.9,29.88,SSW,213,4.0,8.0,83,0.00,,---,0.01,VWS V14.01,2013-09-11 05:59:00,
2013-09-10 23:04:00,62.1,56.9,29.88,WSW,245,0.0,8.0,83,0.00,,---,0.01,VWS V14.01,2013-09-11 06:04:00,
2013-09-10 23:09:00,62.1,57.2,29.89,SW,226,0.0,3.0,84,0.00,,---,0.01,VWS V14.01,2013-09-11 06:09:00,
2013-09-10 23:14:00,62.1,57.2,29.89,SW,236,0.0,7.0,84,0.00,,---,0.01,VWS V14.01,2013-09-11 06:14:00,
2013-09-10 23:19:00,62.1,56.9,29.89,WSW,240,0.0,7.0,83,0.00,,---,0.01,VWS V14.01,2013-09-11 06:19:00,
2013-09-10 23:24:00,62.1,57.2,29.89,West,275,0.0,7.0,84,0.00,,---,0.01,VWS V14.01,2013-09-11 06:24:00,
2013-09-10 23:29:00,62.1,57.2,29.89,WSW,241,0.0,7.0,84,0.00,,---,0.01,VWS V14.01,2013-09-11 06:29:00,
2013-09-10 23:34:00,62.0,57.1,29.89,SW,221,4.0,7.0,84,0.00,,---,0.01,VWS V14.01,2013-09-11 06:34:00,
2013-09-10 23:40:00,62.0,57.1,29.89,West,259,0.0,3.0,84,0.00,,---,0.01,VWS V14.01,2013-09-11 06:40:00,
2013-09-10 23:45:00,62.0,57.1,29.89,West,269,0.0,3.0,84,0.00,,---,0.01,VWS V14.01,2013-09-11 06:45:00,
2013-09-10 23:50:00,62.0,57.1,29.89,SW,215,3.0,6.0,84,0.00,,---,0.01,VWS V14.01,2013-09-11 06:50:00,
2013-09-10 23:55:00,62.0,57.1,29.89,WSW,242,0.0,6.0,84,0.00,,---,0.01,VWS V14.01,2013-09-11 06:55:00,